Location: Lombard
(41.8800°N, 88.0080°W)
Time: 22:17:52
(UTC-06:00)

Vanguard 1 Rocket - All Passes

Search period start: 29 January 2023 00:00
Search period end: 08 February 2023 00:00
Orbit: 650 x 4225 km, 34.3° (Epoch: 29 January)

Date Brightness Start Highest point End Pass type
(mag) Time Alt. Az. Time Alt. Az. Time Alt. Az.
29 Jan - 10:15:56 10° SSE 10:21:49 16° SE 10:29:43 10° E daylight
29 Jan - 12:34:45 10° SW 12:46:15 50° SSE 13:06:53 10° E daylight
29 Jan - 14:59:01 10° WSW 15:15:14 69° S 15:41:01 10° E daylight
29 Jan - 17:26:05 10° W 17:47:01 61° SSW 18:11:57 10° SE visible
29 Jan - 19:56:44 10° W 20:17:26 35° SW 20:36:51 10° SSE visible
30 Jan - 11:25:05 10° SSW 11:34:23 35° SE 11:50:20 10° E daylight
30 Jan - 13:47:43 10° WSW 14:01:15 64° SSE 14:25:11 10° E daylight
30 Jan - 16:13:30 10° W 16:32:03 67° S 16:58:01 10° ESE daylight
30 Jan - 18:42:04 10° W 19:03:26 46° SSW 19:25:55 10° SSE visible
30 Jan - 21:17:51 10° W 21:31:50 18° SW 21:44:48 10° SSW visible
31 Jan - 10:16:45 10° S 10:23:25 20° SE 10:33:13 10° E daylight
31 Jan - 12:37:04 10° SW 12:48:15 54° SSE 13:08:57 10° E daylight
31 Jan - 15:01:35 10° W 15:17:24 69° S 15:43:00 10° ESE daylight
31 Jan - 17:28:39 10° W 17:48:50 56° SSW 18:13:30 10° SE visible
31 Jan - 19:59:52 10° W 20:18:46 29° SW 20:37:12 10° S visible
01 Feb - 11:27:08 10° SSW 11:36:15 40° SE 11:52:38 10° E daylight
01 Feb - 13:50:17 10° WSW 14:03:27 66° S 14:27:11 10° E daylight
01 Feb - 16:16:06 10° W 16:34:05 63° SSW 16:59:46 10° ESE daylight
01 Feb - 18:44:49 10° W 19:04:58 40° SW 19:26:51 10° SSE visible
01 Feb - 21:24:21 10° WSW 21:33:06 13° SW 21:41:35 10° SW visible
02 Feb - 10:18:12 10° S 10:25:09 25° SE 10:36:10 10° E daylight
02 Feb - 12:39:32 10° SW 12:50:23 58° SSE 13:11:00 10° E daylight
02 Feb - 15:04:14 10° W 15:19:35 67° S 15:44:52 10° ESE daylight
02 Feb - 17:31:18 10° W 17:50:37 50° SSW 18:14:48 10° SE visible
02 Feb - 20:03:33 10° W 20:20:08 23° SW 20:36:50 10° S visible
03 Feb - 09:12:05 10° SE 09:14:43 11° SE 09:17:46 10° ESE daylight
03 Feb - 11:29:24 10° SW 11:38:16 45° SSE 11:54:50 10° E daylight
03 Feb - 13:52:54 10° WSW 14:05:43 67° S 14:29:08 10° E daylight
03 Feb - 16:18:45 10° W 16:36:06 58° SSW 17:01:19 10° SE daylight
03 Feb - 18:47:49 10° W 19:06:31 34° SW 19:27:21 10° SSE visible
04 Feb - 10:20:02 10° SSW 10:27:03 30° SE 10:38:48 10° E daylight
04 Feb - 12:42:06 10° WSW 12:52:38 61° SSE 13:13:01 10° E daylight
04 Feb - 15:06:53 10° W 15:21:48 64° S 15:46:37 10° ESE daylight
04 Feb - 17:34:03 10° W 17:52:25 44° SSW 18:15:46 10° SSE visible
04 Feb - 20:08:13 10° W 20:21:34 18° SW 20:35:17 10° SSW visible
05 Feb - 09:12:13 10° SSE 09:16:31 15° SE 09:22:13 10° E daylight
05 Feb - 11:31:49 10° SW 11:40:26 50° SSE 11:56:58 10° E daylight
05 Feb - 13:55:35 10° W 14:08:02 66° S 14:31:01 10° ESE daylight
05 Feb - 16:21:27 10° W 16:38:07 53° SSW 17:02:38 10° SE daylight
05 Feb - 18:51:11 10° W 19:08:07 28° SW 19:27:16 10° S visible
06 Feb - 10:22:09 10° SSW 10:29:05 35° SE 10:41:15 10° E daylight
06 Feb - 12:44:45 10° WSW 12:54:59 63° S 13:15:00 10° E daylight
06 Feb - 15:09:36 10° W 15:24:00 60° SSW 15:48:12 10° ESE daylight
06 Feb - 17:37:00 10° W 17:54:13 38° SW 18:16:20 10° SSE visible
06 Feb - 20:15:22 10° WSW 20:23:06 12° SW 20:31:04 10° SSW visible
07 Feb - 09:13:31 10° S 09:18:26 20° SE 09:25:33 10° E daylight
07 Feb - 11:34:21 10° SW 11:42:45 54° SSE 11:59:05 10° E daylight
07 Feb - 13:58:18 10° W 14:10:22 64° S 14:32:49 10° ESE daylight
07 Feb - 16:24:15 10° W 16:40:08 47° SSW 17:03:39 10° SE daylight
07 Feb - 18:55:11 10° W 19:09:45 22° SW 19:26:21 10° S visible
